Weather History for KLVS - January, 2013

Change the Weather History Date:

Saturday, January 5, 2013

  Actual Average Record
Temperature  
Mean Temperature 32 °F -  
Max Temperature 46 °F 45 °F 67 °F (1956)
Min Temperature 19 °F 17 °F -19 °F (1971)
Degree Days  
Heating Degree Days 32    
Moisture  
Dew Point 6 °F    
Average Humidity 41    
Maximum Humidity 65    
Minimum Humidity 18    
Precipitation  
Precipitation 0.00 in - - ()
Sea Level Pressure  
Sea Level Pressure 30.21 in    
Wind  
Wind Speed 8 mph (SW)    
Max Wind Speed 18 mph    
Max Gust Speed -    
Visibility 10 miles    
Events      
Averages and records for this station are not official NWS values.
T = Trace of Precipitation, MM = Missing Value Source: NWS Daily Summary

Daily Weather History Graph

Daily Weather History Graph

Search for Another Location

Airport or City:

Trip Planner

Search our weather history database for the weather conditions in past years. The results will help you decide how hot, cold, wet, or windy it might be!

Date:

Astronomy

Jan. 05, 2013 Rise Set
Actual Time 7:10 AM MST 5:01 PM MST
Civil Twilight 6:42 AM MST 5:29 PM MST
Nautical Twilight 6:10 AM MST 6:01 PM MST
Astronomical Twilight 5:39 AM MST 6:32 PM MST
Moon 12:27 AM MST (1/5) 11:47 AM MST (1/5)
Length of Visible Light 10h 47m
Length of Day
9h 51m
Last Quarter, 43% of the Moon is Illuminated
Jan 5
Last Quarter
Jan 11
New
Jan 18
First Quarter
Jan 26
Full
Feb 3
Last Quarter

Hourly Weather History & Observations

Time (MST) Temp. Windchill Dew Point Humidity Pressure Visibility Wind Dir Wind Speed Gust Speed Precip Events Conditions
12:53 AM 21.9 °F 13.4 °F -2.0 °F 35% 30.04 in 10.0 mi NW 6.9 mph - N/A   Clear
1:53 AM 19.9 °F 9.3 °F 1.0 °F 44% 30.05 in 10.0 mi NNW 9.2 mph - N/A   Clear
2:53 AM 21.0 °F 13.4 °F -0.0 °F 40% 30.06 in 10.0 mi WNW 5.8 mph - N/A   Clear
3:53 AM 21.0 °F 16.2 °F -0.0 °F 40% 30.09 in 10.0 mi WNW 3.5 mph - N/A   Clear
4:53 AM 23.0 °F 15.8 °F 1.0 °F 39% 30.13 in 10.0 mi NNW 5.8 mph - N/A   Clear
5:53 AM 19.9 °F 9.3 °F 1.9 °F 46% 30.18 in 10.0 mi North 9.2 mph - N/A   Clear
6:53 AM 19.9 °F 8.6 °F 1.9 °F 46% 30.23 in 10.0 mi NNE 10.4 mph - N/A   Clear
7:53 AM 21.9 °F 14.5 °F 3.0 °F 44% 30.22 in 10.0 mi NE 5.8 mph - N/A   Clear
8:53 AM 30.0 °F 24.1 °F 5.0 °F 35% 30.22 in 10.0 mi NNE 5.8 mph - N/A   Clear
9:53 AM 36.0 °F - 5.0 °F 27% 30.19 in 10.0 mi Calm Calm - N/A   Clear
10:53 AM 39.0 °F 36.8 °F 5.0 °F 24% 30.19 in 10.0 mi South 3.5 mph - N/A   Clear
11:53 AM 43.0 °F - 3.9 °F 20% 30.15 in 10.0 mi Calm Calm - N/A   Clear
12:53 PM 46.0 °F 41.4 °F 3.9 °F 18% 30.12 in 10.0 mi South 9.2 mph - N/A   Clear
1:53 PM 46.9 °F - 7.0 °F 20% 30.12 in 10.0 mi South 13.8 mph - N/A   Clear
2:53 PM 44.1 °F 36.2 °F 7.0 °F 22% 30.15 in 10.0 mi SSE 18.4 mph - N/A   Clear
4:53 PM 34.0 °F 23.0 °F 9.0 °F 35% 30.23 in 10.0 mi South 18.4 mph - N/A   Clear
5:53 PM 28.0 °F 16.1 °F 10.0 °F 47% 30.31 in 10.0 mi South 16.1 mph - N/A   Clear
6:53 PM 25.0 °F 14.2 °F 12.0 °F 58% 30.35 in 10.0 mi SSE 11.5 mph - N/A   Clear
7:53 PM 23.0 °F 17.0 °F 12.0 °F 63% 30.38 in 10.0 mi SSW 4.6 mph - N/A   Clear
8:53 PM 25.0 °F 19.3 °F 12.0 °F 58% 30.35 in 10.0 mi WSW 4.6 mph - N/A   Clear
9:53 PM 26.1 °F 19.4 °F 10.9 °F 53% 30.33 in 10.0 mi SW 5.8 mph - N/A   Clear
10:53 PM 19.9 °F 10.1 °F 9.0 °F 62% 30.33 in 10.0 mi South 8.1 mph - N/A   Clear
11:53 PM 19.9 °F 11.1 °F 10.0 °F 65% 30.32 in 10.0 mi South 6.9 mph - N/A   Clear